PRMFG SAWH-SCRM

Flight info

Callsign PRMFG
Flight time 1h 36m
Altitude 41000
Route D093N DCT KRILL DCT PAMES DCT VUDOR
Aircraft LJ35/M-SGHRWXY/SB1

Departure

Time 2026-05-06 22:37
Airport Ushuaia - Malvinas Argentinas International Airport (SAWH)

Arrival

Time 2026-05-07 00:13
Airport Teniente Rodolfo Marsh Martin Airport (SCRM)
Time Latitude Longitude Altitude Speed Heading
2026-05-06 22:26 -54.84053 -68.31033 86 ft 0 kts 179°
2026-05-06 22:33 -54.84054 -68.31033 85 ft 2 kts 179°
2026-05-06 22:33 -54.84072 -68.31033 88 ft 6 kts 179°
2026-05-06 22:33 -54.84127 -68.30981 83 ft 11 kts 175°
2026-05-06 22:33 -54.84228 -68.30973 83 ft 18 kts 177°
2026-05-06 22:34 -54.84295 -68.30965 84 ft 0 kts 176°
2026-05-06 22:35 -54.84297 -68.30964 84 ft 2 kts 176°
2026-05-06 22:35 -54.84336 -68.30959 87 ft 10 kts 176°
2026-05-06 22:36 -54.84378 -68.30831 84 ft 15 kts 87°
2026-05-06 22:36 -54.84360 -68.30621 82 ft 21 kts 62°
2026-05-06 22:36 -54.84365 -68.30545 80 ft 2 kts 190°
2026-05-06 22:36 -54.84379 -68.30578 82 ft 8 kts 275°
2026-05-06 22:37 -54.84397 -68.31269 87 ft 116 kts 266°
2026-05-06 22:37 -54.84491 -68.33096 880 ft 156 kts 258°
2026-05-06 22:37 -54.85219 -68.34288 2682 ft 164 kts 191°
2026-05-06 22:37 -54.86313 -68.33472 3731 ft 192 kts 120°
2026-05-06 22:38 -54.86679 -68.31182 4990 ft 218 kts 97°
2026-05-06 22:38 -54.86993 -68.28351 6141 ft 254 kts 112°
2026-05-06 22:38 -54.87789 -68.25452 7482 ft 277 kts 107°
2026-05-06 22:38 -54.87911 -68.22085 8949 ft 293 kts 80°
2026-05-06 22:39 -54.87175 -68.18742 10528 ft 301 kts 60°
2026-05-06 22:39 -54.86177 -68.15457 12135 ft 308 kts 69°
2026-05-06 22:39 -54.85928 -68.11766 13848 ft 308 kts 96°
2026-05-06 22:39 -54.86552 -68.08293 15674 ft 297 kts 114°
2026-05-06 22:40 -54.87432 -68.05115 17461 ft 286 kts 115°
2026-05-06 22:40 -54.88160 -68.01962 19033 ft 276 kts 106°
2026-05-06 22:40 -54.88579 -67.98770 20336 ft 271 kts 98°
2026-05-06 22:40 -54.88925 -67.95506 21236 ft 281 kts 100°
2026-05-06 22:41 -54.90751 -67.89257 22731 ft 307 kts 135°
2026-05-06 22:41 -54.92453 -67.86908 23645 ft 311 kts 153°
2026-05-06 22:41 -54.94378 -67.85125 24452 ft 315 kts 155°
2026-05-06 22:42 -54.96324 -67.83330 25308 ft 318 kts 154°
2026-05-06 22:42 -54.98275 -67.81502 26178 ft 319 kts 154°
2026-05-06 22:42 -55.00234 -67.79663 27059 ft 320 kts 154°
2026-05-06 22:42 -55.02200 -67.77824 27931 ft 320 kts 155°
2026-05-06 22:43 -55.04198 -67.75958 28499 ft 331 kts 155°
2026-05-06 22:43 -55.06254 -67.74029 29092 ft 340 kts 154°
2026-05-06 22:43 -55.08360 -67.72047 29745 ft 347 kts 154°
2026-05-06 22:43 -55.10496 -67.70038 30365 ft 352 kts 154°
2026-05-06 22:44 -55.12665 -67.67996 30954 ft 356 kts 154°
2026-05-06 22:44 -55.14857 -67.65927 31548 ft 359 kts 154°
2026-05-06 22:44 -55.17061 -67.63846 32153 ft 361 kts 154°
2026-05-06 22:44 -55.19280 -67.61749 32769 ft 363 kts 154°
2026-05-06 22:45 -55.21500 -67.59648 33389 ft 364 kts 154°
2026-05-06 22:45 -55.23733 -67.57530 33995 ft 365 kts 154°
2026-05-06 22:45 -55.25972 -67.55406 34517 ft 366 kts 155°
2026-05-06 22:45 -55.28206 -67.53284 35029 ft 366 kts 155°
2026-05-06 22:46 -55.30448 -67.51150 35531 ft 366 kts 155°
2026-05-06 22:46 -55.32684 -67.49021 36027 ft 366 kts 155°
2026-05-06 22:46 -55.34920 -67.46887 36525 ft 365 kts 155°
2026-05-06 22:46 -55.37154 -67.44754 37020 ft 365 kts 155°
2026-05-06 22:47 -55.39386 -67.42620 37503 ft 365 kts 155°
2026-05-06 22:47 -55.41616 -67.40484 37979 ft 364 kts 155°
2026-05-06 22:47 -55.43839 -67.38352 38457 ft 364 kts 155°
2026-05-06 22:47 -55.46063 -67.36217 38867 ft 364 kts 155°
2026-05-06 22:48 -55.48296 -67.34073 39040 ft 370 kts 155°
2026-05-06 22:48 -55.50598 -67.31862 39042 ft 382 kts 155°
2026-05-06 22:48 -55.52967 -67.29579 39056 ft 393 kts 155°
2026-05-06 22:48 -55.55402 -67.27226 39054 ft 404 kts 155°
2026-05-06 22:49 -55.57894 -67.24815 39054 ft 414 kts 154°
2026-05-06 22:49 -55.63061 -67.19811 39057 ft 432 kts 154°
2026-05-06 22:50 -55.68424 -67.14598 39050 ft 447 kts 154°
2026-05-06 22:50 -55.73958 -67.09202 39051 ft 459 kts 154°
2026-05-06 22:51 -55.79610 -67.03672 39048 ft 467 kts 154°
2026-05-06 22:51 -55.85321 -66.98067 39050 ft 470 kts 154°
2026-05-06 22:52 -55.91056 -66.92418 39042 ft 471 kts 154°
2026-05-06 22:52 -55.96795 -66.86748 39044 ft 472 kts 154°
2026-05-06 22:53 -56.02533 -66.81058 39041 ft 471 kts 154°
2026-05-06 22:53 -56.08263 -66.75357 39039 ft 471 kts 154°
2026-05-06 22:54 -56.13990 -66.69639 39038 ft 471 kts 153°
2026-05-06 22:54 -56.19714 -66.63906 39036 ft 471 kts 154°
2026-05-06 22:55 -56.25441 -66.58148 39036 ft 471 kts 153°
2026-05-06 22:55 -56.31155 -66.52384 39032 ft 471 kts 153°
2026-05-06 22:56 -56.36868 -66.46601 39030 ft 471 kts 153°
2026-05-06 22:56 -56.42585 -66.40794 39026 ft 471 kts 153°
2026-05-06 22:57 -56.48287 -66.34982 39025 ft 471 kts 153°
2026-05-06 22:57 -56.53987 -66.29151 39020 ft 470 kts 153°
2026-05-06 22:58 -56.59680 -66.23309 39018 ft 470 kts 153°
2026-05-06 22:58 -56.65353 -66.17463 39004 ft 465 kts 153°
2026-05-06 22:59 -56.70934 -66.11695 39004 ft 458 kts 153°
2026-05-06 22:59 -56.76441 -66.05984 38995 ft 452 kts 153°
2026-05-06 23:00 -56.81023 -66.01219 38992 ft 453 kts 153°
2026-05-06 23:00 -56.86503 -65.95498 38991 ft 454 kts 153°
2026-05-06 23:01 -56.91991 -65.89749 39161 ft 449 kts 153°
2026-05-06 23:01 -56.94684 -65.86920 39387 ft 444 kts 153°
2026-05-06 23:01 -56.97352 -65.84116 39479 ft 441 kts 153°
2026-05-06 23:02 -57.02684 -65.78498 39479 ft 441 kts 153°
2026-05-06 23:02 -57.08006 -65.72866 39477 ft 441 kts 153°
2026-05-06 23:03 -57.13327 -65.67220 39476 ft 442 kts 153°
2026-05-06 23:03 -57.18647 -65.61555 39470 ft 441 kts 153°
2026-05-06 23:04 -57.23967 -65.55870 39474 ft 441 kts 153°
2026-05-06 23:04 -57.29278 -65.50176 39465 ft 442 kts 153°
2026-05-06 23:05 -57.34591 -65.44461 39461 ft 442 kts 153°
2026-05-06 23:05 -57.39902 -65.38729 39466 ft 442 kts 153°
2026-05-06 23:06 -57.45205 -65.32985 39463 ft 442 kts 153°
2026-05-06 23:06 -57.50517 -65.27213 39457 ft 442 kts 153°
2026-05-06 23:07 -57.55826 -65.21423 39453 ft 442 kts 153°
2026-05-06 23:07 -57.61127 -65.15624 39445 ft 442 kts 153°
2026-05-06 23:08 -57.66425 -65.09808 39443 ft 442 kts 153°
2026-05-06 23:08 -57.71725 -65.03967 39436 ft 442 kts 152°
2026-05-06 23:09 -57.77027 -64.98107 39436 ft 442 kts 152°
2026-05-06 23:09 -57.82325 -64.92232 39489 ft 443 kts 152°
2026-05-06 23:10 -57.87655 -64.86295 39426 ft 445 kts 152°
2026-05-06 23:10 -57.92966 -64.80365 39422 ft 444 kts 152°
2026-05-06 23:11 -57.98271 -64.74418 39419 ft 443 kts 152°
2026-05-06 23:11 -58.03555 -64.68474 39423 ft 442 kts 152°
2026-05-06 23:12 -58.08838 -64.62512 39422 ft 442 kts 152°
2026-05-06 23:12 -58.14108 -64.56542 39420 ft 441 kts 152°
2026-05-06 23:13 -58.19377 -64.50554 39423 ft 441 kts 152°
2026-05-06 23:13 -58.24630 -64.44562 39427 ft 441 kts 152°
2026-05-06 23:14 -58.29888 -64.38544 39430 ft 441 kts 152°
2026-05-06 23:14 -58.35139 -64.32512 39426 ft 440 kts 152°
2026-05-06 23:15 -58.40380 -64.26471 39430 ft 440 kts 152°
2026-05-06 23:15 -58.45613 -64.20418 39427 ft 440 kts 152°
2026-05-06 23:16 -58.50839 -64.14352 39434 ft 440 kts 152°
2026-05-06 23:16 -58.56068 -64.08261 39436 ft 439 kts 152°
2026-05-06 23:17 -58.61287 -64.02159 39443 ft 439 kts 152°
2026-05-06 23:17 -58.66501 -63.96042 39446 ft 439 kts 152°
2026-05-06 23:18 -58.71715 -63.89903 39449 ft 439 kts 151°
2026-05-06 23:18 -58.76917 -63.83757 39447 ft 439 kts 151°
2026-05-06 23:19 -58.82117 -63.77590 39453 ft 439 kts 151°
2026-05-06 23:19 -58.87308 -63.71414 39458 ft 438 kts 151°
2026-05-06 23:20 -58.92496 -63.65218 39462 ft 438 kts 151°
2026-05-06 23:20 -58.97703 -63.58977 39090 ft 443 kts 151°
2026-05-06 23:20 -59.00301 -63.55846 38710 ft 436 kts 151°
2026-05-06 23:21 -59.02857 -63.52773 38215 ft 431 kts 151°
2026-05-06 23:21 -59.05390 -63.49724 37699 ft 426 kts 151°
2026-05-06 23:21 -59.07894 -63.46695 37206 ft 421 kts 151°
2026-05-06 23:21 -59.10364 -63.43701 36731 ft 414 kts 151°
2026-05-06 23:22 -59.12788 -63.40764 36270 ft 407 kts 152°
2026-05-06 23:22 -59.15164 -63.37883 35821 ft 400 kts 152°
2026-05-06 23:22 -59.17512 -63.35026 35284 ft 394 kts 152°
2026-05-06 23:22 -59.19862 -63.32166 34811 ft 393 kts 150°
2026-05-06 23:23 -59.22177 -63.29341 34357 ft 392 kts 150°
2026-05-06 23:23 -59.24454 -63.26556 33921 ft 390 kts 150°
2026-05-06 23:23 -59.26771 -63.23718 33538 ft 386 kts 150°
2026-05-06 23:23 -59.29035 -63.20943 33118 ft 383 kts 150°
2026-05-06 23:24 -59.31294 -63.18170 32633 ft 382 kts 150°
2026-05-06 23:24 -59.33542 -63.15405 32169 ft 381 kts 150°
2026-05-06 23:24 -59.35778 -63.12649 31731 ft 380 kts 150°
2026-05-06 23:24 -59.38019 -63.09883 31294 ft 379 kts 150°
2026-05-06 23:25 -59.40240 -63.07139 30873 ft 377 kts 150°
2026-05-06 23:25 -59.42456 -63.04395 30470 ft 375 kts 149°
2026-05-06 23:25 -59.44658 -63.01665 30070 ft 374 kts 149°
2026-05-06 23:25 -59.46851 -62.98942 29611 ft 372 kts 149°
2026-05-06 23:26 -59.49037 -62.96224 29160 ft 370 kts 149°
2026-05-06 23:26 -59.51209 -62.93517 28720 ft 369 kts 149°
2026-05-06 23:26 -59.53371 -62.90820 28294 ft 367 kts 149°
2026-05-06 23:26 -59.55492 -62.88170 27881 ft 365 kts 149°
2026-05-06 23:27 -59.57633 -62.85491 27478 ft 363 kts 149°
2026-05-06 23:27 -59.59766 -62.82817 27078 ft 362 kts 149°
2026-05-06 23:27 -59.61879 -62.80166 26695 ft 360 kts 149°
2026-05-06 23:27 -59.63994 -62.77507 26314 ft 358 kts 149°
2026-05-06 23:28 -59.66091 -62.74866 25943 ft 357 kts 149°
2026-05-06 23:28 -59.68179 -62.72234 25580 ft 355 kts 148°
2026-05-06 23:28 -59.70250 -62.69618 25286 ft 351 kts 148°
2026-05-06 23:28 -59.72303 -62.67022 24907 ft 350 kts 148°
2026-05-06 23:29 -59.74372 -62.64401 24486 ft 346 kts 148°
2026-05-06 23:29 -59.76394 -62.61839 24080 ft 343 kts 148°
2026-05-06 23:29 -59.78392 -62.59300 23675 ft 340 kts 148°
2026-05-06 23:29 -59.80373 -62.56779 23221 ft 338 kts 148°
2026-05-06 23:30 -59.82350 -62.54261 22752 ft 335 kts 148°
2026-05-06 23:30 -59.84302 -62.51772 22301 ft 333 kts 148°
2026-05-06 23:30 -59.86246 -62.49287 21861 ft 331 kts 148°
2026-05-06 23:30 -59.88174 -62.46820 21423 ft 328 kts 148°
2026-05-06 23:31 -59.90089 -62.44367 21000 ft 326 kts 148°
2026-05-06 23:31 -59.91992 -62.41927 20592 ft 324 kts 148°
2026-05-06 23:31 -59.93884 -62.39497 20181 ft 322 kts 148°
2026-05-06 23:31 -59.95764 -62.37077 19784 ft 320 kts 148°
2026-05-06 23:32 -59.97633 -62.34671 19395 ft 319 kts 148°
2026-05-06 23:32 -59.99493 -62.32272 18969 ft 318 kts 148°
2026-05-06 23:32 -60.01358 -62.29863 18475 ft 321 kts 148°
2026-05-06 23:32 -60.03240 -62.27429 17937 ft 322 kts 148°
2026-05-06 23:33 -60.04485 -62.25817 17593 ft 322 kts 148°
2026-05-06 23:33 -60.06365 -62.23379 17068 ft 322 kts 148°
2026-05-06 23:33 -60.08243 -62.20940 16559 ft 321 kts 148°
2026-05-06 23:33 -60.10139 -62.18476 16062 ft 320 kts 148°
2026-05-06 23:34 -60.12001 -62.16052 15582 ft 318 kts 148°
2026-05-06 23:34 -60.13853 -62.13637 15112 ft 317 kts 148°
2026-05-06 23:34 -60.15697 -62.11231 14657 ft 315 kts 148°
2026-05-06 23:34 -60.17534 -62.08830 14204 ft 314 kts 148°
2026-05-06 23:35 -60.19357 -62.06444 13762 ft 312 kts 148°
2026-05-06 23:35 -60.21176 -62.04060 13268 ft 311 kts 148°
2026-05-06 23:35 -60.22978 -62.01695 12880 ft 306 kts 148°
2026-05-06 23:35 -60.24746 -61.99370 12545 ft 301 kts 148°
2026-05-06 23:36 -60.26476 -61.97094 12209 ft 296 kts 148°
2026-05-06 23:36 -60.28200 -61.94823 11876 ft 293 kts 148°
2026-05-06 23:36 -60.29893 -61.92590 11550 ft 289 kts 148°
2026-05-06 23:36 -60.31566 -61.90380 11223 ft 287 kts 148°
2026-05-06 23:37 -60.33229 -61.88181 10900 ft 284 kts 148°
2026-05-06 23:37 -60.34867 -61.86012 10727 ft 276 kts 148°
2026-05-06 23:37 -60.36443 -61.83923 10701 ft 268 kts 148°
2026-05-06 23:37 -60.38022 -61.81829 10675 ft 274 kts 148°
2026-05-06 23:38 -60.39630 -61.79691 10671 ft 278 kts 148°
2026-05-06 23:38 -60.41307 -61.77467 10693 ft 303 kts 148°
2026-05-06 23:38 -60.43139 -61.75016 10790 ft 329 kts 148°
2026-05-06 23:38 -60.45117 -61.72372 10954 ft 349 kts 148°
2026-05-06 23:39 -60.47197 -61.69596 11035 ft 367 kts 148°
2026-05-06 23:39 -60.49381 -61.66674 11035 ft 384 kts 148°
2026-05-06 23:39 -60.51648 -61.63634 11038 ft 393 kts 148°
2026-05-06 23:39 -60.53907 -61.60599 11039 ft 386 kts 148°
2026-05-06 23:40 -60.56132 -61.57612 11037 ft 382 kts 148°
2026-05-06 23:40 -60.58334 -61.54646 11033 ft 378 kts 148°
2026-05-06 23:40 -60.60522 -61.51691 11036 ft 376 kts 148°
2026-05-06 23:40 -60.62695 -61.48753 11039 ft 374 kts 148°
2026-05-06 23:41 -60.64857 -61.45827 11037 ft 373 kts 148°
2026-05-06 23:41 -60.67016 -61.42900 11039 ft 372 kts 148°
2026-05-06 23:41 -60.69167 -61.39978 11037 ft 371 kts 148°
2026-05-06 23:41 -60.71313 -61.37056 11039 ft 370 kts 148°
2026-05-06 23:42 -60.73454 -61.34140 11041 ft 370 kts 148°
2026-05-06 23:42 -60.75593 -61.31219 11038 ft 370 kts 148°
2026-05-06 23:42 -60.77732 -61.28295 11038 ft 369 kts 148°
2026-05-06 23:42 -60.79843 -61.25404 11039 ft 369 kts 148°
2026-05-06 23:43 -60.81977 -61.22476 11039 ft 369 kts 148°
2026-05-06 23:43 -60.84140 -61.19504 11039 ft 369 kts 148°
2026-05-06 23:43 -60.86244 -61.16610 11040 ft 369 kts 148°
2026-05-06 23:43 -60.88379 -61.13666 11039 ft 369 kts 148°
2026-05-06 23:44 -60.90540 -61.10682 11037 ft 366 kts 148°
2026-05-06 23:44 -60.92624 -61.07797 11038 ft 358 kts 148°
2026-05-06 23:44 -60.94689 -61.04940 11036 ft 358 kts 148°
2026-05-06 23:44 -60.96754 -61.02077 11035 ft 359 kts 148°
2026-05-06 23:45 -60.98828 -60.99194 11035 ft 360 kts 148°
2026-05-06 23:45 -61.00953 -60.96470 11028 ft 359 kts 155°
2026-05-06 23:45 -61.03247 -60.94443 11026 ft 358 kts 161°
2026-05-06 23:45 -61.05548 -60.92463 11030 ft 359 kts 158°
2026-05-06 23:46 -61.07774 -60.90107 11026 ft 361 kts 151°
2026-05-06 23:46 -61.09810 -60.87033 11025 ft 363 kts 142°
2026-05-06 23:46 -61.11715 -60.83578 11025 ft 364 kts 140°
2026-05-06 23:46 -61.13600 -60.80087 11027 ft 364 kts 141°
2026-05-06 23:47 -61.15581 -60.76834 11029 ft 363 kts 145°
2026-05-06 23:47 -61.17600 -60.73684 11030 ft 363 kts 144°
2026-05-06 23:47 -61.19574 -60.70427 11028 ft 364 kts 142°
2026-05-06 23:47 -61.21534 -60.67093 11031 ft 364 kts 143°
2026-05-06 23:48 -61.23506 -60.63807 11032 ft 364 kts 143°
2026-05-06 23:48 -61.25489 -60.60542 11031 ft 364 kts 143°
2026-05-06 23:48 -61.27465 -60.57254 11031 ft 364 kts 143°
2026-05-06 23:48 -61.29436 -60.53952 11033 ft 364 kts 143°
2026-05-06 23:49 -61.31409 -60.50650 11005 ft 364 kts 143°
2026-05-06 23:49 -61.33385 -60.47344 11006 ft 364 kts 143°
2026-05-06 23:49 -61.35357 -60.44036 11011 ft 364 kts 143°
2026-05-06 23:49 -61.37329 -60.40723 11009 ft 364 kts 143°
2026-05-06 23:50 -61.39299 -60.37405 11007 ft 364 kts 143°
2026-05-06 23:50 -61.43235 -60.30764 11010 ft 363 kts 143°
2026-05-06 23:50 -61.45200 -60.27440 11009 ft 363 kts 143°
2026-05-06 23:51 -61.47165 -60.24109 11011 ft 363 kts 143°
2026-05-06 23:51 -61.49125 -60.20783 11010 ft 363 kts 143°
2026-05-06 23:51 -61.51088 -60.17445 11009 ft 363 kts 143°
2026-05-06 23:51 -61.53051 -60.14101 11010 ft 363 kts 143°
2026-05-06 23:52 -61.55009 -60.10761 11006 ft 363 kts 143°
2026-05-06 23:52 -61.56971 -60.07410 10996 ft 364 kts 143°
2026-05-06 23:52 -61.58950 -60.04019 10694 ft 366 kts 142°
2026-05-06 23:52 -61.60885 -60.00697 10415 ft 352 kts 143°
2026-05-06 23:53 -61.62745 -59.97507 10238 ft 339 kts 143°
2026-05-06 23:53 -61.64543 -59.94418 10054 ft 329 kts 143°
2026-05-06 23:53 -61.66291 -59.91405 9850 ft 321 kts 143°
2026-05-06 23:53 -61.68007 -59.88446 9624 ft 315 kts 143°
2026-05-06 23:54 -61.69688 -59.85540 9401 ft 311 kts 143°
2026-05-06 23:54 -61.71352 -59.82662 9175 ft 307 kts 143°
2026-05-06 23:54 -61.72996 -59.79813 8950 ft 304 kts 142°
2026-05-06 23:54 -61.74624 -59.76988 8723 ft 302 kts 142°
2026-05-06 23:55 -61.76239 -59.74182 8507 ft 300 kts 142°
2026-05-06 23:55 -61.77844 -59.71389 8286 ft 298 kts 142°
2026-05-06 23:55 -61.79436 -59.68615 8076 ft 296 kts 142°
2026-05-06 23:55 -61.81022 -59.65847 7866 ft 295 kts 142°
2026-05-06 23:56 -61.82599 -59.63092 7655 ft 293 kts 142°
2026-05-06 23:56 -61.84165 -59.60351 7445 ft 292 kts 142°
2026-05-06 23:56 -61.85730 -59.57623 7243 ft 290 kts 143°
2026-05-06 23:56 -61.87319 -59.54913 7049 ft 289 kts 143°
2026-05-06 23:57 -61.88862 -59.52271 6851 ft 288 kts 142°
2026-05-06 23:57 -61.90416 -59.49508 6647 ft 287 kts 142°
2026-05-06 23:57 -61.91949 -59.46799 6425 ft 287 kts 142°
2026-05-06 23:57 -61.93485 -59.44084 6157 ft 288 kts 142°
2026-05-06 23:58 -61.95017 -59.41370 5893 ft 288 kts 142°
2026-05-06 23:58 -61.96558 -59.38637 5629 ft 287 kts 142°
2026-05-06 23:58 -61.98088 -59.35912 5373 ft 287 kts 142°
2026-05-06 23:58 -61.99569 -59.33096 5154 ft 285 kts 140°
2026-05-06 23:59 -62.01022 -59.30233 4963 ft 282 kts 140°
2026-05-06 23:59 -62.02448 -59.27398 4783 ft 279 kts 140°
2026-05-06 23:59 -62.03849 -59.24598 4714 ft 273 kts 140°
2026-05-06 23:59 -62.05252 -59.21934 4637 ft 268 kts 142°
2026-05-07 00:00 -62.06650 -59.19359 4554 ft 264 kts 142°
2026-05-07 00:00 -62.08033 -59.16823 4463 ft 261 kts 142°
2026-05-07 00:00 -62.09391 -59.14324 4381 ft 250 kts 142°
2026-05-07 00:00 -62.10242 -59.12741 4314 ft 240 kts 142°
2026-05-07 00:01 -62.11874 -59.09673 4146 ft 229 kts 142°
2026-05-07 00:01 -62.13059 -59.07428 3920 ft 227 kts 142°
2026-05-07 00:01 -62.14243 -59.05173 3629 ft 229 kts 142°
2026-05-07 00:01 -62.15350 -59.02697 3336 ft 232 kts 135°
2026-05-07 00:02 -62.16402 -59.00075 3042 ft 233 kts 134°
2026-05-07 00:02 -62.17451 -58.97428 2748 ft 234 kts 134°
2026-05-07 00:02 -62.18501 -58.94766 2558 ft 232 kts 133°
2026-05-07 00:02 -62.19436 -58.92027 2552 ft 222 kts 128°
2026-05-07 00:03 -62.20157 -58.89434 2449 ft 186 kts 124°
2026-05-07 00:03 -62.20804 -58.87141 2142 ft 175 kts 128°
2026-05-07 00:03 -62.21465 -58.85011 1872 ft 170 kts 126°
2026-05-07 00:03 -62.22060 -58.82803 1663 ft 165 kts 126°
2026-05-07 00:04 -62.22621 -58.80703 1431 ft 166 kts 125°
2026-05-07 00:04 -62.23401 -58.79043 1158 ft 152 kts 170°
2026-05-07 00:04 -62.24294 -58.79562 1049 ft 131 kts 235°
2026-05-07 00:04 -62.24413 -58.80752 985 ft 129 kts 283°
2026-05-07 00:05 -62.23723 -58.81996 935 ft 135 kts 333°
2026-05-07 00:05 -62.22835 -58.82657 1000 ft 137 kts 329°
2026-05-07 00:05 -62.22235 -58.84055 1036 ft 130 kts 290°
2026-05-07 00:05 -62.21857 -58.85905 946 ft 138 kts 289°
2026-05-07 00:06 -62.21506 -58.87847 877 ft 140 kts 287°
2026-05-07 00:06 -62.21144 -58.89799 819 ft 142 kts 295°
2026-05-07 00:06 -62.20654 -58.91650 754 ft 144 kts 294°
2026-05-07 00:06 -62.20210 -58.93585 589 ft 144 kts 290°
2026-05-07 00:07 -62.19826 -58.95537 369 ft 141 kts 292°
2026-05-07 00:07 -62.19392 -58.97363 209 ft 134 kts 293°
2026-05-07 00:07 -62.18974 -58.99016 200 ft 119 kts 297°
2026-05-07 00:07 -62.18442 -59.00783 829 ft 156 kts 300°
2026-05-07 00:08 -62.17871 -59.02949 1828 ft 172 kts 286°
2026-05-07 00:08 -62.17850 -59.04928 2565 ft 114 kts 246°
2026-05-07 00:08 -62.18478 -59.06302 2766 ft 152 kts 205°
2026-05-07 00:08 -62.19595 -59.06168 3241 ft 184 kts 159°
2026-05-07 00:09 -62.20552 -59.04145 3592 ft 199 kts 130°
2026-05-07 00:09 -62.21242 -59.01793 3711 ft 178 kts 127°
2026-05-07 00:09 -62.21860 -58.99570 3754 ft 170 kts 126°
2026-05-07 00:09 -62.22454 -58.97390 3724 ft 168 kts 127°
2026-05-07 00:10 -62.23055 -58.95240 3675 ft 167 kts 127°
2026-05-07 00:10 -62.23661 -58.93170 3422 ft 156 kts 130°
2026-05-07 00:10 -62.24119 -58.91185 3287 ft 147 kts 106°
2026-05-07 00:10 -62.23972 -58.88977 3097 ft 159 kts 66°
2026-05-07 00:11 -62.23340 -58.86982 2947 ft 160 kts 38°
2026-05-07 00:11 -62.22357 -58.86071 2640 ft 158 kts
2026-05-07 00:11 -62.21452 -58.86912 2242 ft 135 kts 296°
2026-05-07 00:11 -62.21178 -58.88735 1786 ft 130 kts 278°
2026-05-07 00:12 -62.20915 -58.90644 1211 ft 136 kts 294°
2026-05-07 00:12 -62.20505 -58.92433 821 ft 131 kts 290°
2026-05-07 00:12 -62.20144 -58.94194 495 ft 129 kts 294°
2026-05-07 00:12 -62.19749 -58.95852 293 ft 124 kts 293°
2026-05-07 00:13 -62.19376 -58.97460 168 ft 115 kts 296°
2026-05-07 00:13 -62.19057 -58.98777 147 ft 78 kts 300°
2026-05-07 00:13 -62.18926 -58.99350 153 ft 12 kts 297°
2026-05-07 00:13 -62.18918 -58.99419 154 ft 0 kts 209°
2026-05-07 00:14 -62.18931 -58.99385 153 ft 8 kts 114°
2026-05-07 00:14 -62.18971 -58.99199 154 ft 19 kts 116°
2026-05-07 00:14 -62.19037 -58.98893 148 ft 23 kts 113°
2026-05-07 00:14 -62.19100 -58.98648 145 ft 15 kts 122°
2026-05-07 00:15 -62.19139 -58.98492 147 ft 8 kts 106°
2026-05-07 00:15 -62.19159 -58.98410 148 ft 4 kts 117°
2026-05-07 00:15 -62.19173 -58.98352 148 ft 5 kts 117°
2026-05-07 00:15 -62.19215 -58.98317 149 ft 11 kts 174°
2026-05-07 00:16 -62.19258 -58.98289 148 ft 0 kts 53°
2026-05-07 00:16 -62.19254 -58.98285 148 ft 1 kts
2026-05-07 00:16 -62.19244 -58.98296 148 ft 0 kts 343°
2026-05-07 00:16 -62.19245 -58.98295 148 ft 3 kts 345°
2026-05-07 00:17 -62.19251 -58.98292 148 ft 0 kts 346°
2026-05-07 00:17 -62.19253 -58.98291 148 ft 0 kts 347°
2026-05-07 00:17 -62.19254 -58.98290 148 ft 0 kts 348°
2026-05-07 00:18 -62.19287 -58.98313 147 ft 53 kts 348°
2026-05-07 00:18 -62.19289 -58.98336 144 ft 0 kts 348°
2026-05-07 00:20 -62.19214 -58.98377 147 ft 47 kts 329°
2026-05-07 00:21 -62.18823 -58.99697 550 ft 131 kts 295°
2026-05-07 00:21 -62.19274 -58.98626 520 ft 281 kts 74°
2026-05-07 00:21 -62.19284 -58.98322 145 ft 0 kts 15°